#timestamp,LO_Frequency,Hit,StdDev 
1512111615.6,286047002.8,P
1512111635.5,286047001.1,N
1512111655.3,286046999.0,N
1512111675.2,286046999.2,N
1512111695.9,286046999.6,N
1512111715.7,286046996.0,N
1512111735.6,286046993.3,N
1512111755.4,286046994.5,N
1512111775.2,286046992.7,N
1512111795.1,286046992.4,N
1512111796.0,286046992.4,N
1512111815.8,286046992.6,N
1512111835.7,286046992.5,N
1512111855.5,286046990.2,N
1512111875.3,286046992.5,N
1512111895.2,286046994.6,N
1512111915.0,286046994.4,N
1512111915.9,286046994.4,N
1512111935.7,286046994.4,N
1512111955.6,286046992.5,N
1512111975.4,286046992.0,N
1512111995.3,286046992.5,N
1512112015.1,286046992.9,N
1512112016.0,286046992.9,N
1512112035.8,286046992.5,N
1512112055.7,286046990.1,N
1512112075.5,286046992.7,N
1512112095.4,286046992.9,N
1512112115.2,286046992.5,N
1512112135.0,286046992.2,N
1512112135.9,286046992.2,N
1512112155.8,286046992.6,N
1512112175.6,286046992.5,Y
1512112195.4,286046996.9,P
1512112215.3,286046996.6,N
1512112235.1,286046997.1,N
1512112255.9,286046997.4,N
1512112275.7,286046995.2,Y
1512112295.5,286047000.3,P
1512112315.4,286047000.5,N
1512112335.2,286046999.7,N
1512112355.1,286047000.0,N
1512112356.0,286047000.0,N
1512112375.8,286047001.2,N
1512112395.6,286047000.7,N
1512112415.5,286046998.2,N
1512112435.3,286047000.4,N
1512112455.2,286047002.0,N
1512112475.9,286047001.8,N
1512112495.7,286047002.3,N
1512112515.6,286047002.4,N
1512112535.4,286047002.8,N
1512112555.2,286047001.9,N
1512112575.1,286047002.5,N
1512112576.0,286047002.5,N
1512112595.8,286046999.8,N
1512112615.7,286047002.5,N
1512112635.5,286047000.5,N
1512112655.3,286047000.3,N
1512112675.2,286046999.9,N
1512112695.0,286047000.0,N
1512112695.9,286047000.0,N
1512112715.8,286047001.0,N
1512112735.6,286047000.8,N
1512112755.4,286047001.2,N
1512112775.3,286047000.8,N
1512112795.1,286047001.1,N
1512112815.8,286047000.0,N
1512112835.7,286047002.5,N
1512112855.5,286047001.3,N
1512112875.4,286047001.9,N
1512112895.2,286047001.5,N
1512112915.0,286047000.2,N
1512112915.9,286047000.2,N
1512112935.8,286047002.2,N
1512112955.6,286047001.3,N
1512112975.4,286047001.5,N
1512112995.3,286047004.3,Y
1512113015.1,286047004.4,P
1512113035.9,286047001.9,N
1512113055.7,286046999.8,N
1512113075.5,286047002.0,N
1512113095.4,286047002.4,N
1512113115.2,286046999.8,N
1512113135.1,286046999.9,N
1512113136.0,286046999.9,N
1512113155.8,286047001.1,N
1512113175.6,286046999.8,N
1512113195.5,286047001.8,N
1512113215.3,286047003.5,N
1512113235.1,286047004.2,N
1512113255.9,286047001.8,N
1512113275.7,286046999.8,N
1512113295.6,286047000.6,N
1512113315.4,286047000.3,N
1512113335.2,286047000.2,N
1512113355.1,286047001.9,N
1512113356.0,286047001.9,N
1512113375.8,286046999.7,N
1512113395.6,286047002.7,N
1512113415.5,286047004.0,N
1512113435.3,286047001.9,N
1512113455.2,286047002.2,N
1512113475.0,286047001.8,N
1512113475.9,286047001.8,N
1512113495.7,286047004.0,N
1512113515.6,286047001.9,N
1512113535.4,286047002.5,N
1512113555.3,286047001.0,N
1512113575.1,286047002.3,N
1512113576.0,286047002.3,N
1512113595.8,286047000.5,N
1512113615.7,286047000.0,N
1512113635.5,286047001.0,N
1512113655.4,286046998.5,N
1512113675.2,286046998.7,N
1512113695.0,286047000.2,N
1512113695.9,286047000.2,N
1512113715.8,286047002.8,N
1512113735.6,286047000.5,N
1512113755.4,286046999.3,N
1512113775.3,286046998.2,N
1512113795.1,286047000.2,N
1512113815.9,286047001.0,N
1512113835.7,286046999.9,N
1512113855.5,286047002.6,N
1512113875.4,286047002.7,N
1512113895.2,286047000.9,N
1512113915.0,286047001.1,N
1512113916.0,286047001.1,N
1512113935.8,286046999.4,N
1512113955.6,286046997.0,N
1512113975.5,286046996.7,N
1512113995.3,286046999.1,N
1512114015.1,286046999.5,N
1512114035.9,286046999.2,N
1512114055.7,286046999.2,N
1512114075.6,286046997.2,N
1512114095.4,286046999.1,N
1512114115.2,286046998.7,N
1512114135.1,286046997.0,N
1512114136.0,286046997.0,N
1512114155.8,286046997.2,N
1512114175.6,286046999.5,N
1512114195.5,286046996.6,N
1512114215.3,286046998.4,N
1512114235.2,286046998.7,N
1512114255.9,286046998.3,N
1512114275.7,286046999.1,N
1512114295.6,286046999.3,N
1512114315.4,286047000.2,N
1512114335.3,286047011.9,Y
1512114355.1,286047002.8,P
1512114356.0,286047002.8,N
1512114375.8,286047001.6,N
1512114395.7,286047002.0,N
1512114415.5,286047000.5,N
1512114435.3,286047001.1,N
1512114455.2,286046998.7,N
1512114475.0,286046998.1,N
1512114475.9,286046998.1,N
1512114495.8,286046998.2,N
1512114515.6,286047001.1,N
1512114535.4,286046998.8,N
1512114555.3,286046998.2,N
1512114575.1,286047000.5,N
1512114595.9,286046998.5,N
1512114615.7,286046998.6,N
1512114635.5,286046998.9,N
1512114655.4,286046998.8,N
1512114675.2,286046998.8,N
1512114695.0,286046999.1,N
1512114695.9,286046999.1,N
1512114715.8,286046998.5,N
1512114735.6,286047000.7,N
1512114755.5,286047000.8,N
1512114775.3,286046998.8,N
1512114795.1,286046999.3,N
1512114815.9,286046999.1,N
1512114835.7,286046998.6,N
1512114855.5,286047000.5,N
1512114875.4,286046998.6,N
1512114895.2,286047000.7,N
1512114915.1,286047001.0,N
1512114916.0,286047001.0,N
1512114935.8,286046998.8,N
1512114955.6,286046998.3,N
1512114975.5,286047001.2,N
1512114995.3,286047002.8,N
1512115015.1,286047000.4,N
1512115035.9,286047002.5,N
1512115055.7,286047000.9,N
1512115075.6,286046998.1,N
1512115095.4,286046998.8,N
1512115115.2,286046998.6,N
1512115135.1,286046998.3,N
1512115136.0,286046998.3,N
1512115155.8,286046999.3,N
1512115175.7,286046998.7,N
1512115195.5,286046998.5,N
